owner,sensor,date,latitude,longitude,vertical_datum,direction_of_sea_water_velocity,sea_water_speed,upward_sea_water_velocity,qcFlag 
TABS,ioos:station:wmo:42046:1,2002-05-01T00:00:00Z,27.8903,-94.0367,2.0,136.5396857,49.73463682,-99999.0,'11111222,11111222,99999999' 
TABS,ioos:station:wmo:42046:1,2002-05-01T00:30:00Z,27.8903,-94.0367,2.0,136.5396857,49.73463682,-99999.0,'11111222,11111222,99999999' 
TABS,ioos:station:wmo:42046:1,2002-05-01T01:00:00Z,27.8903,-94.0367,2.0,137.5235512,48.49799377,-99999.0,'11111222,11111222,99999999' 
TABS,ioos:station:wmo:42046:1,2002-05-01T01:30:00Z,27.8903,-94.0367,2.0,134.7268507,45.99781843,-99999.0,'11111222,11111222,99999999' 
TABS,ioos:station:wmo:42046:1,2002-05-01T02:00:00Z,27.8903,-94.0367,2.0,137.2200603,48.73502744,-99999.0,'11111222,11111222,99999999' 
TABS,ioos:station:wmo:42046:1,2002-05-01T02:30:00Z,27.8903,-94.0367,2.0,146.3335089,46.91932011,-99999.0,'11111222,11111222,99999999' 
TABS,ioos:station:wmo:42046:1,2002-05-01T03:00:00Z,27.8903,-94.0367,2.0,144.752005,42.74712856,-99999.0,'11111222,11111222,99999999' 
TABS,ioos:station:wmo:42046:1,2002-05-01T03:30:00Z,27.8903,-94.0367,2.0,150.2531815,39.56335931,-99999.0,'11111222,11111222,99999999' 
TABS,ioos:station:wmo:42046:1,2002-05-01T04:00:00Z,27.8903,-94.0367,2.0,152.3979195,37.31714083,-99999.0,'11111222,11111222,99999999' 
TABS,ioos:station:wmo:42046:1,2002-05-01T04:30:00Z,27.8903,-94.0367,2.0,153.4271945,33.68860045,-99999.0,'11111222,11111222,99999999' 
TABS,ioos:station:wmo:42046:1,2002-05-01T05:00:00Z,27.8903,-94.0367,2.0,145.4462829,28.15700623,-99999.0,'11111222,11111222,99999999' 
TABS,ioos:station:wmo:42046:1,2002-05-01T05:30:00Z,27.8903,-94.0367,2.0,139.187945,25.0773304,-99999.0,'11111222,11111222,99999999' 
TABS,ioos:station:wmo:42046:1,2002-05-01T06:00:00Z,27.8903,-94.0367,2.0,133.9928485,21.72567605,-99999.0,'11111222,11111222,99999999' 
TABS,ioos:station:wmo:42046:1,2002-05-01T06:30:00Z,27.8903,-94.0367,2.0,141.6984685,14.73059741,-99999.0,'11111222,11111222,99999999' 
TABS,ioos:station:wmo:42046:1,2002-05-01T07:00:00Z,27.8903,-94.0367,2.0,130.8858146,14.19285031,-99999.0,'11111222,11111222,99999999' 
TABS,ioos:station:wmo:42046:1,2002-05-01T07:30:00Z,27.8903,-94.0367,2.0,129.9216513,13.26080691,-99999.0,'11111222,11111222,99999999' 
TABS,ioos:station:wmo:42046:1,2002-05-01T08:00:00Z,27.8903,-94.0367,2.0,108.9199937,13.44648653,-99999.0,'11111222,11111222,99999999' 
TABS,ioos:station:wmo:42046:1,2002-05-01T08:30:00Z,27.8903,-94.0367,2.0,95.66590831,12.76235088,-99999.0,'11111222,11111222,99999999' 
TABS,ioos:station:wmo:42046:1,2002-05-01T09:00:00Z,27.8903,-94.0367,2.0,98.59749695,12.3083102,-99999.0,'11111222,11111222,99999999' 
TABS,ioos:station:wmo:42046:1,2002-05-01T09:30:00Z,27.8903,-94.0367,2.0,98.17001989,12.1735533,-99999.0,'11111222,11111222,99999999' 
TABS,ioos:station:wmo:42046:1,2002-05-01T10:00:00Z,27.8903,-94.0367,2.0,82.00127824,14.80402648,-99999.0,'11111222,11111222,99999999' 
TABS,ioos:station:wmo:42046:1,2002-05-01T10:30:00Z,27.8903,-94.0367,2.0,69.3987846,16.31320018,-99999.0,'11111222,11111222,99999999' 
TABS,ioos:station:wmo:42046:1,2002-05-01T11:00:00Z,27.8903,-94.0367,2.0,59.69020203,16.98118076,-99999.0,'11111222,11111222,99999999' 
TABS,ioos:station:wmo:42046:1,2002-05-01T11:30:00Z,27.8903,-94.0367,2.0,67.82909395,21.3052693,-99999.0,'11111222,11111222,99999999' 
TABS,ioos:station:wmo:42046:1,2002-05-01T12:30:00Z,27.8903,-94.0367,2.0,64.16916359,26.87527116,-99999.0,'11111222,11111222,99999999' 
TABS,ioos:station:wmo:42046:1,2002-05-01T13:00:00Z,27.8903,-94.0367,2.0,62.991898,28.91322362,-99999.0,'11111222,11111222,99999999' 
TABS,ioos:station:wmo:42046:1,2002-05-01T13:30:00Z,27.8903,-94.0367,2.0,68.6336431,33.01943973,-99999.0,'11111222,11111222,99999999' 
TABS,ioos:station:wmo:42046:1,2002-05-01T14:00:00Z,27.8903,-94.0367,2.0,65.0514531,35.98818278,-99999.0,'11111222,11111222,99999999' 
TABS,ioos:station:wmo:42046:1,2002-05-01T14:30:00Z,27.8903,-94.0367,2.0,65.07410896,37.67974655,-99999.0,'11111222,11111222,99999999' 
TABS,ioos:station:wmo:42046:1,2002-05-01T15:30:00Z,27.8903,-94.0367,2.0,71.47514829,40.28746703,-99999.0,'11111222,11111222,99999999' 
TABS,ioos:station:wmo:42046:1,2002-05-01T16:00:00Z,27.8903,-94.0367,2.0,74.15423592,41.09147478,-99999.0,'11111222,11111222,99999999' 
TABS,ioos:station:wmo:42046:1,2002-05-01T16:30:00Z,27.8903,-94.0367,2.0,76.67652139,43.08978765,-99999.0,'11111222,11111222,99999999' 
TABS,ioos:station:wmo:42046:1,2002-05-01T17:00:00Z,27.8903,-94.0367,2.0,79.59487103,44.95934608,-99999.0,'11111222,11111222,99999999' 
TABS,ioos:station:wmo:42046:1,2002-05-01T17:30:00Z,27.8903,-94.0367,2.0,83.5113058,41.3247202,-99999.0,'11111222,11111222,99999999' 
TABS,ioos:station:wmo:42046:1,2002-05-01T18:00:00Z,27.8903,-94.0367,2.0,82.02792179,45.64108785,-99999.0,'11111222,11111222,99999999' 
TABS,ioos:station:wmo:42046:1,2002-05-01T18:30:00Z,27.8903,-94.0367,2.0,84.5159045,44.05163561,-99999.0,'11111222,11111222,99999999' 
TABS,ioos:station:wmo:42046:1,2002-05-01T19:00:00Z,27.8903,-94.0367,2.0,85.44084075,44.91211195,-99999.0,'11111222,11111222,99999999' 
TABS,ioos:station:wmo:42046:1,2002-05-01T19:30:00Z,27.8903,-94.0367,2.0,85.80425923,43.73721985,-99999.0,'11111222,11111222,99999999' 
TABS,ioos:station:wmo:42046:1,2002-05-01T20:00:00Z,27.8903,-94.0367,2.0,89.22578165,47.36432413,-99999.0,'11111222,11111222,99999999' 
TABS,ioos:station:wmo:42046:1,2002-05-01T20:30:00Z,27.8903,-94.0367,2.0,102.5962489,42.36980175,-99999.0,'11111222,11111222,99999999' 
TABS,ioos:station:wmo:42046:1,2002-05-01T21:00:00Z,27.8903,-94.0367,2.0,99.54766479,47.44724439,-99999.0,'11111222,11111222,99999999' 
TABS,ioos:station:wmo:42046:1,2002-05-01T21:30:00Z,27.8903,-94.0367,2.0,95.91288975,46.49738272,-99999.0,'11111222,11111222,99999999' 
TABS,ioos:station:wmo:42046:1,2002-05-01T22:00:00Z,27.8903,-94.0367,2.0,108.7712083,52.79829732,-99999.0,'11111222,11111222,99999999' 
TABS,ioos:station:wmo:42046:1,2002-05-01T22:30:00Z,27.8903,-94.0367,2.0,110.8732565,47.34738113,-99999.0,'11111222,11111222,99999999' 
TABS,ioos:station:wmo:42046:1,2002-05-01T23:00:00Z,27.8903,-94.0367,2.0,118.1861312,54.53716623,-99999.0,'11111222,11111222,99999999' 
TABS,ioos:station:wmo:42046:1,2002-05-01T23:30:00Z,27.8903,-94.0367,2.0,120.8459603,49.24592267,-99999.0,'11111222,11111222,99999999' 
TABS,ioos:station:wmo:42046:1,2002-05-02T00:00:00Z,27.8903,-94.0367,2.0,123.9149337,50.86362649,-99999.0,'11111222,11111222,99999999' 
TABS,ioos:station:wmo:42046:1,2002-05-02T00:30:00Z,27.8903,-94.0367,2.0,131.3381062,46.72200766,-99999.0,'11111222,11111222,99999999' 
TABS,ioos:station:wmo:42046:1,2002-05-02T01:00:00Z,27.8903,-94.0367,2.0,134.2803641,45.04625401,-99999.0,'11111222,11111222,99999999' 
TABS,ioos:station:wmo:42046:1,2002-05-02T01:30:00Z,27.8903,-94.0367,2.0,131.257273,42.24780704,-99999.0,'11111222,11111222,99999999' 
TABS,ioos:station:wmo:42046:1,2002-05-02T02:00:00Z,27.8903,-94.0367,2.0,140.6362872,45.64522538,-99999.0,'11111222,11111222,99999999' 
TABS,ioos:station:wmo:42046:1,2002-05-02T02:30:00Z,27.8903,-94.0367,2.0,149.3442856,44.63829746,-99999.0,'11111222,11111222,99999999' 
TABS,ioos:station:wmo:42046:1,2002-05-02T03:00:00Z,27.8903,-94.0367,2.0,161.8130689,40.88230913,-99999.0,'11111222,11111222,99999999' 
TABS,ioos:station:wmo:42046:1,2002-05-02T03:30:00Z,27.8903,-94.0367,2.0,152.2453355,33.17698148,-99999.0,'11111222,11111222,99999999' 
TABS,ioos:station:wmo:42046:1,2002-05-02T04:00:00Z,27.8903,-94.0367,2.0,159.2779837,35.18622742,-99999.0,'11111222,11111222,99999999' 
TABS,ioos:station:wmo:42046:1,2002-05-02T04:30:00Z,27.8903,-94.0367,2.0,160.3395602,29.87138095,-99999.0,'11111222,11111222,99999999' 
TABS,ioos:station:wmo:42046:1,2002-05-02T05:00:00Z,27.8903,-94.0367,2.0,160.0023605,27.25315578,-99999.0,'11111222,11111222,99999999' 
TABS,ioos:station:wmo:42046:1,2002-05-02T05:30:00Z,27.8903,-94.0367,2.0,165.070152,21.15410362,-99999.0,'11111222,11111222,99999999' 
TABS,ioos:station:wmo:42046:1,2002-05-02T06:30:00Z,27.8903,-94.0367,2.0,169.5014868,12.18395666,-99999.0,'11111222,11111222,99999999' 
TABS,ioos:station:wmo:42046:1,2002-05-02T07:00:00Z,27.8903,-94.0367,2.0,156.5964117,6.243660785,-99999.0,'11133222,11111222,99999999' 
TABS,ioos:station:wmo:42046:1,2002-05-02T07:30:00Z,27.8903,-94.0367,2.0,155.6631976,8.396076465,-99999.0,'11133222,11111222,99999999' 
TABS,ioos:station:wmo:42046:1,2002-05-02T08:00:00Z,27.8903,-94.0367,2.0,69.37651684,0.993680029,-99999.0,'11133222,11111222,99999999' 
TABS,ioos:station:wmo:42046:1,2002-05-02T08:30:00Z,27.8903,-94.0367,2.0,43.82661552,3.797959979,-99999.0,'11133222,11111222,99999999' 
TABS,ioos:station:wmo:42046:1,2002-05-02T09:00:00Z,27.8903,-94.0367,2.0,16.27701834,6.88600029,-99999.0,'11133222,11111222,99999999' 
TABS,ioos:station:wmo:42046:1,2002-05-02T09:30:00Z,27.8903,-94.0367,2.0,39.3849447,10.9845801,-99999.0,'11111222,11111222,99999999' 
TABS,ioos:station:wmo:42046:1,2002-05-02T10:00:00Z,27.8903,-94.0367,2.0,32.608653,14.39980903,-99999.0,'11111222,11111222,99999999' 
TABS,ioos:station:wmo:42046:1,2002-05-02T10:30:00Z,27.8903,-94.0367,2.0,32.64994743,18.94336031,-99999.0,'11111222,11111222,99999999' 
TABS,ioos:station:wmo:42046:1,2002-05-02T11:00:00Z,27.8903,-94.0367,2.0,33.74397627,20.68477943,-99999.0,'11111222,11111222,99999999' 
TABS,ioos:station:wmo:42046:1,2002-05-02T11:30:00Z,27.8903,-94.0367,2.0,48.93589485,25.23959786,-99999.0,'11111222,11111222,99999999' 
TABS,ioos:station:wmo:42046:1,2002-05-02T12:00:00Z,27.8903,-94.0367,2.0,49.15658121,32.58433059,-99999.0,'11111222,11111222,99999999' 
TABS,ioos:station:wmo:42046:1,2002-05-02T12:30:00Z,27.8903,-94.0367,2.0,49.20002222,32.82719909,-99999.0,'11111222,11111222,99999999' 
TABS,ioos:station:wmo:42046:1,2002-05-02T13:00:00Z,27.8903,-94.0367,2.0,55.56460942,38.37463355,-99999.0,'11111222,11111222,99999999' 
TABS,ioos:station:wmo:42046:1,2002-05-02T13:30:00Z,27.8903,-94.0367,2.0,59.06522519,37.38841131,-99999.0,'11111222,11111222,99999999' 
TABS,ioos:station:wmo:42046:1,2002-05-02T14:00:00Z,27.8903,-94.0367,2.0,62.69522306,40.52540191,-99999.0,'11111222,11111222,99999999' 
TABS,ioos:station:wmo:42046:1,2002-05-02T14:30:00Z,27.8903,-94.0367,2.0,58.10549007,42.75509443,-99999.0,'11111222,11111222,99999999' 
TABS,ioos:station:wmo:42046:1,2002-05-02T15:00:00Z,27.8903,-94.0367,2.0,61.47936167,45.34256389,-99999.0,'11111222,11111222,99999999' 
TABS,ioos:station:wmo:42046:1,2002-05-02T15:30:00Z,27.8903,-94.0367,2.0,61.38960724,44.10547358,-99999.0,'11111222,11111222,99999999' 
TABS,ioos:station:wmo:42046:1,2002-05-02T16:00:00Z,27.8903,-94.0367,2.0,69.26616789,45.25066629,-99999.0,'11111222,11111222,99999999' 
TABS,ioos:station:wmo:42046:1,2002-05-02T16:30:00Z,27.8903,-94.0367,2.0,72.27717961,45.0374744,-99999.0,'11111222,11111222,99999999' 
TABS,ioos:station:wmo:42046:1,2002-05-02T17:00:00Z,27.8903,-94.0367,2.0,72.92156828,45.15100442,-99999.0,'11111222,11111222,99999999' 
TABS,ioos:station:wmo:42046:1,2002-05-02T17:30:00Z,27.8903,-94.0367,2.0,73.00955726,44.65922749,-99999.0,'11111222,11111222,99999999' 
TABS,ioos:station:wmo:42046:1,2002-05-02T18:00:00Z,27.8903,-94.0367,2.0,73.36747019,48.56182554,-99999.0,'11111222,11111222,99999999' 
TABS,ioos:station:wmo:42046:1,2002-05-02T18:30:00Z,27.8903,-94.0367,2.0,72.62719125,50.83918567,-99999.0,'11111222,11111222,99999999' 
TABS,ioos:station:wmo:42046:1,2002-05-02T19:00:00Z,27.8903,-94.0367,2.0,72.34035072,51.88507685,-99999.0,'11111222,11111222,99999999' 
TABS,ioos:station:wmo:42046:1,2002-05-02T19:30:00Z,27.8903,-94.0367,2.0,83.67911034,55.76902814,-99999.0,'11111222,11111222,99999999' 
TABS,ioos:station:wmo:42046:1,2002-05-02T20:00:00Z,27.8903,-94.0367,2.0,85.00195167,55.20992755,-99999.0,'11111222,11111222,99999999' 
TABS,ioos:station:wmo:42046:1,2002-05-02T20:30:00Z,27.8903,-94.0367,2.0,86.87303988,55.91324888,-99999.0,'11111222,11111222,99999999' 
TABS,ioos:station:wmo:42046:1,2002-05-02T21:00:00Z,27.8903,-94.0367,2.0,88.84246457,56.43151602,-99999.0,'11111222,11111222,99999999' 
TABS,ioos:station:wmo:42046:1,2002-05-02T21:30:00Z,27.8903,-94.0367,2.0,87.3589453,53.38670715,-99999.0,'11111222,11111222,99999999' 
TABS,ioos:station:wmo:42046:1,2002-05-02T22:00:00Z,27.8903,-94.0367,2.0,96.6957822,59.60656424,-99999.0,'11111222,11111222,99999999' 
TABS,ioos:station:wmo:42046:1,2002-05-02T22:30:00Z,27.8903,-94.0367,2.0,100.824021,55.96571272,-99999.0,'11111222,11111222,99999999' 
TABS,ioos:station:wmo:42046:1,2002-05-02T23:00:00Z,27.8903,-94.0367,2.0,100.9227792,55.72963305,-99999.0,'11111222,11111222,99999999' 
TABS,ioos:station:wmo:42046:1,2002-05-02T23:30:00Z,27.8903,-94.0367,2.0,105.4801614,54.47624804,-99999.0,'11111222,11111222,99999999' 
TABS,ioos:station:wmo:42046:1,2002-05-03T00:00:00Z,27.8903,-94.0367,2.0,113.7909369,51.56153993,-99999.0,'11111222,11111222,99999999' 
TABS,ioos:station:wmo:42046:1,2002-05-03T00:30:00Z,27.8903,-94.0367,2.0,113.7909369,51.56153993,-99999.0,'11111222,11111222,99999999' 
TABS,ioos:station:wmo:42046:1,2002-05-03T01:00:00Z,27.8903,-94.0367,2.0,126.6894641,52.10225811,-99999.0,'11111222,11111222,99999999' 
TABS,ioos:station:wmo:42046:1,2002-05-03T01:30:00Z,27.8903,-94.0367,2.0,117.3794821,44.35912646,-99999.0,'11111222,11111222,99999999' 
TABS,ioos:station:wmo:42046:1,2002-05-03T02:00:00Z,27.8903,-94.0367,2.0,129.6963408,50.41333256,-99999.0,'11111222,11111222,99999999' 
TABS,ioos:station:wmo:42046:1,2002-05-03T02:30:00Z,27.8903,-94.0367,2.0,133.3706555,50.486621,-99999.0,'11111222,11111222,99999999' 
TABS,ioos:station:wmo:42046:1,2002-05-03T03:30:00Z,27.8903,-94.0367,2.0,144.9680224,47.14025456,-99999.0,'11111222,11111222,99999999' 
TABS,ioos:station:wmo:42046:1,2002-05-03T04:00:00Z,27.8903,-94.0367,2.0,148.631326,45.39509335,-99999.0,'11111222,11111222,99999999' 
TABS,ioos:station:wmo:42046:1,2002-05-03T04:30:00Z,27.8903,-94.0367,2.0,145.9373792,46.50982047,-99999.0,'11111222,11111222,99999999' 
TABS,ioos:station:wmo:42046:1,2002-05-03T05:00:00Z,27.8903,-94.0367,2.0,152.6990823,41.09784544,-99999.0,'11111222,11111222,99999999' 
TABS,ioos:station:wmo:42046:1,2002-05-03T05:30:00Z,27.8903,-94.0367,2.0,147.0946236,37.86461409,-99999.0,'11111222,11111222,99999999' 
TABS,ioos:station:wmo:42046:1,2002-05-03T06:00:00Z,27.8903,-94.0367,2.0,152.2043521,32.48861493,-99999.0,'11111222,11111222,99999999' 
TABS,ioos:station:wmo:42046:1,2002-05-03T06:30:00Z,27.8903,-94.0367,2.0,158.9608465,27.77133954,-99999.0,'11111222,11111222,99999999' 
TABS,ioos:station:wmo:42046:1,2002-05-03T07:00:00Z,27.8903,-94.0367,2.0,158.4101802,21.60580015,-99999.0,'11111222,11111222,99999999' 
TABS,ioos:station:wmo:42046:1,2002-05-03T07:30:00Z,27.8903,-94.0367,2.0,167.1498384,17.22129496,-99999.0,'11111222,11111222,99999999' 
TABS,ioos:station:wmo:42046:1,2002-05-03T08:00:00Z,27.8903,-94.0367,2.0,175.3230144,8.217359673,-99999.0,'11133222,11111222,99999999' 
TABS,ioos:station:wmo:42046:1,2002-05-03T08:30:00Z,27.8903,-94.0367,2.0,200.8806674,5.77958476,-99999.0,'11133222,11111222,99999999' 
TABS,ioos:station:wmo:42046:1,2002-05-03T09:30:00Z,27.8903,-94.0367,2.0,8.853228879,4.483413878,-99999.0,'11133222,11111222,99999999' 
TABS,ioos:station:wmo:42046:1,2002-05-03T10:00:00Z,27.8903,-94.0367,2.0,16.14451149,5.142810516,-99999.0,'11133222,11111222,99999999' 
TABS,ioos:station:wmo:42046:1,2002-05-03T10:30:00Z,27.8903,-94.0367,2.0,28.33707534,12.87249005,-99999.0,'11111222,11111222,99999999' 
TABS,ioos:station:wmo:42046:1,2002-05-03T11:00:00Z,27.8903,-94.0367,2.0,31.53492862,13.93838226,-99999.0,'11111222,11111222,99999999' 
TABS,ioos:station:wmo:42046:1,2002-05-03T11:30:00Z,27.8903,-94.0367,2.0,29.75166363,21.40095325,-99999.0,'11111222,11111222,99999999' 
TABS,ioos:station:wmo:42046:1,2002-05-03T12:30:00Z,27.8903,-94.0367,2.0,43.18784575,26.60759478,-99999.0,'11111222,11111222,99999999' 
TABS,ioos:station:wmo:42046:1,2002-05-03T13:00:00Z,27.8903,-94.0367,2.0,40.36997067,28.73158889,-99999.0,'11111222,11111222,99999999' 
TABS,ioos:station:wmo:42046:1,2002-05-03T13:30:00Z,27.8903,-94.0367,2.0,44.19427587,31.17234993,-99999.0,'11111222,11111222,99999999' 
TABS,ioos:station:wmo:42046:1,2002-05-03T14:00:00Z,27.8903,-94.0367,2.0,48.15588722,33.65274729,-99999.0,'11111222,11111222,99999999' 
TABS,ioos:station:wmo:42046:1,2002-05-03T14:30:00Z,27.8903,-94.0367,2.0,50.34504706,33.62772219,-99999.0,'11111222,11111222,99999999' 
TABS,ioos:station:wmo:42046:1,2002-05-03T15:00:00Z,27.8903,-94.0367,2.0,53.52369643,36.40085851,-99999.0,'11111222,11111222,99999999' 
TABS,ioos:station:wmo:42046:1,2002-05-03T15:30:00Z,27.8903,-94.0367,2.0,51.44895793,41.99207663,-99999.0,'11111222,11111222,99999999' 
TABS,ioos:station:wmo:42046:1,2002-05-03T16:00:00Z,27.8903,-94.0367,2.0,54.42993351,38.97202715,-99999.0,'11111222,11111222,99999999' 
TABS,ioos:station:wmo:42046:1,2002-05-03T16:30:00Z,27.8903,-94.0367,2.0,53.16120033,40.64600595,-99999.0,'11111222,11111222,99999999' 
TABS,ioos:station:wmo:42046:1,2002-05-03T17:00:00Z,27.8903,-94.0367,2.0,53.63745522,42.46966447,-99999.0,'11111222,11111222,99999999' 
TABS,ioos:station:wmo:42046:1,2002-05-03T17:30:00Z,27.8903,-94.0367,2.0,55.96740912,45.45572021,-99999.0,'11111222,11111222,99999999' 
TABS,ioos:station:wmo:42046:1,2002-05-03T18:00:00Z,27.8903,-94.0367,2.0,61.00164662,51.50731404,-99999.0,'11111222,11111222,99999999' 
TABS,ioos:station:wmo:42046:1,2002-05-03T18:30:00Z,27.8903,-94.0367,2.0,61.29227909,52.15026462,-99999.0,'11111222,11111222,99999999' 
TABS,ioos:station:wmo:42046:1,2002-05-03T19:00:00Z,27.8903,-94.0367,2.0,61.68470216,55.78461885,-99999.0,'11111222,11111222,99999999' 
TABS,ioos:station:wmo:42046:1,2002-05-03T19:30:00Z,27.8903,-94.0367,2.0,67.14942201,57.29661857,-99999.0,'11111222,11111222,99999999' 
TABS,ioos:station:wmo:42046:1,2002-05-03T20:00:00Z,27.8903,-94.0367,2.0,68.94167101,59.13965336,-99999.0,'11111222,11111222,99999999' 
TABS,ioos:station:wmo:42046:1,2002-05-03T20:30:00Z,27.8903,-94.0367,2.0,71.81046363,58.33507093,-99999.0,'11111222,11111222,99999999' 
TABS,ioos:station:wmo:42046:1,2002-05-03T21:00:00Z,27.8903,-94.0367,2.0,76.36922753,57.58182439,-99999.0,'11111222,11111222,99999999' 
TABS,ioos:station:wmo:42046:1,2002-05-03T21:30:00Z,27.8903,-94.0367,2.0,75.51163733,59.31635946,-99999.0,'11111222,11111222,99999999' 
TABS,ioos:station:wmo:42046:1,2002-05-03T22:00:00Z,27.8903,-94.0367,2.0,75.05682238,59.45050462,-99999.0,'11111222,11111222,99999999' 
TABS,ioos:station:wmo:42046:1,2002-05-03T22:30:00Z,27.8903,-94.0367,2.0,76.48371935,62.80961153,-99999.0,'11111222,11111222,99999999' 
TABS,ioos:station:wmo:42046:1,2002-05-03T23:00:00Z,27.8903,-94.0367,2.0,78.43153813,62.58129593,-99999.0,'11111222,11111222,99999999' 
TABS,ioos:station:wmo:42046:1,2002-05-03T23:30:00Z,27.8903,-94.0367,2.0,79.31545041,62.89034584,-99999.0,'11111222,11111222,99999999' 
TABS,ioos:station:wmo:42046:1,2002-05-04T00:00:00Z,27.8903,-94.0367,2.0,81.34115615,60.37817652,-99999.0,'11111222,11111222,99999999' 
TABS,ioos:station:wmo:42046:1,2002-05-04T00:30:00Z,27.8903,-94.0367,2.0,84.83786149,59.46117136,-99999.0,'11111222,11111222,99999999' 
TABS,ioos:station:wmo:42046:1,2002-05-04T01:00:00Z,27.8903,-94.0367,2.0,84.67946013,59.63694576,-99999.0,'11111222,11111222,99999999' 
TABS,ioos:station:wmo:42046:1,2002-05-04T01:30:00Z,27.8903,-94.0367,2.0,88.16044706,50.46600836,-99999.0,'11111222,11111222,99999999' 
TABS,ioos:station:wmo:42046:1,2002-05-04T02:00:00Z,27.8903,-94.0367,2.0,95.66044291,57.99277972,-99999.0,'11111222,11111222,99999999' 
TABS,ioos:station:wmo:42046:1,2002-05-04T02:30:00Z,27.8903,-94.0367,2.0,103.8182813,55.47557481,-99999.0,'11111222,11111222,99999999' 
TABS,ioos:station:wmo:42046:1,2002-05-04T03:00:00Z,27.8903,-94.0367,2.0,111.3363361,52.85249095,-99999.0,'11111222,11111222,99999999' 
TABS,ioos:station:wmo:42046:1,2002-05-04T03:30:00Z,27.8903,-94.0367,2.0,117.0904562,42.42446582,-99999.0,'11111222,11111222,99999999' 
TABS,ioos:station:wmo:42046:1,2002-05-04T04:00:00Z,27.8903,-94.0367,2.0,126.5818429,43.37454784,-99999.0,'11111222,11111222,99999999' 
TABS,ioos:station:wmo:42046:1,2002-05-04T04:30:00Z,27.8903,-94.0367,2.0,128.4586145,42.27025077,-99999.0,'11111222,11111222,99999999' 
TABS,ioos:station:wmo:42046:1,2002-05-04T05:00:00Z,27.8903,-94.0367,2.0,144.4084436,42.13048777,-99999.0,'11111222,11111222,99999999' 
TABS,ioos:station:wmo:42046:1,2002-05-04T05:30:00Z,27.8903,-94.0367,2.0,138.9048383,39.14438529,-99999.0,'11111222,11111222,99999999' 
TABS,ioos:station:wmo:42046:1,2002-05-04T06:00:00Z,27.8903,-94.0367,2.0,158.1782382,36.88281036,-99999.0,'11111222,11111222,99999999' 
TABS,ioos:station:wmo:42046:1,2002-05-04T06:30:00Z,27.8903,-94.0367,2.0,161.0874739,35.29540622,-99999.0,'11111222,11111222,99999999' 
TABS,ioos:station:wmo:42046:1,2002-05-04T07:00:00Z,27.8903,-94.0367,2.0,158.5542504,26.61251209,-99999.0,'11111222,11111222,99999999' 
TABS,ioos:station:wmo:42046:1,2002-05-04T07:30:00Z,27.8903,-94.0367,2.0,151.8933786,27.76412253,-99999.0,'11111222,11111222,99999999' 
TABS,ioos:station:wmo:42046:1,2002-05-04T08:00:00Z,27.8903,-94.0367,2.0,162.6364963,25.7011634,-99999.0,'11111222,11111222,99999999' 
TABS,ioos:station:wmo:42046:1,2002-05-04T08:30:00Z,27.8903,-94.0367,2.0,155.1892537,24.83199549,-99999.0,'11111222,11111222,99999999' 
TABS,ioos:station:wmo:42046:1,2002-05-04T09:00:00Z,27.8903,-94.0367,2.0,160.5341766,22.32613043,-99999.0,'11111222,11111222,99999999' 
TABS,ioos:station:wmo:42046:1,2002-05-04T09:30:00Z,27.8903,-94.0367,2.0,156.7658375,21.24275877,-99999.0,'11111222,11111222,99999999' 
TABS,ioos:station:wmo:42046:1,2002-05-04T10:00:00Z,27.8903,-94.0367,2.0,164.0148191,13.90776042,-99999.0,'11111222,11111222,99999999' 
TABS,ioos:station:wmo:42046:1,2002-05-04T10:30:00Z,27.8903,-94.0367,2.0,171.0225359,12.81700433,-99999.0,'11111222,11111222,99999999' 
TABS,ioos:station:wmo:42046:1,2002-05-04T11:00:00Z,27.8903,-94.0367,2.0,151.7337011,10.09358707,-99999.0,'11111222,11111222,99999999' 
TABS,ioos:station:wmo:42046:1,2002-05-04T11:30:00Z,27.8903,-94.0367,2.0,154.2305222,7.406571407,-99999.0,'11133222,11111222,99999999' 
TABS,ioos:station:wmo:42046:1,2002-05-04T12:00:00Z,27.8903,-94.0367,2.0,122.1735496,3.248907509,-99999.0,'11133222,11111222,99999999' 
TABS,ioos:station:wmo:42046:1,2002-05-04T12:30:00Z,27.8903,-94.0367,2.0,152.7874196,3.958092975,-99999.0,'11133222,11111222,99999999' 
TABS,ioos:station:wmo:42046:1,2002-05-04T13:00:00Z,27.8903,-94.0367,2.0,68.45907445,1.634135857,-99999.0,'11133222,11111222,99999999' 
TABS,ioos:station:wmo:42046:1,2002-05-04T13:30:00Z,27.8903,-94.0367,2.0,83.44508742,3.241188054,-99999.0,'11133222,11111222,99999999' 
TABS,ioos:station:wmo:42046:1,2002-05-04T14:00:00Z,27.8903,-94.0367,2.0,359.2680376,3.130255581,-99999.0,'11133222,11144222,99999999' 
TABS,ioos:station:wmo:42046:1,2002-05-04T14:30:00Z,27.8903,-94.0367,2.0,27.11434224,6.999214242,-99999.0,'11133222,11111222,99999999' 
TABS,ioos:station:wmo:42046:1,2002-05-04T15:00:00Z,27.8903,-94.0367,2.0,20.41162932,7.88508719,-99999.0,'11133222,11111222,99999999' 
TABS,ioos:station:wmo:42046:1,2002-05-04T15:30:00Z,27.8903,-94.0367,2.0,15.25910481,13.18481323,-99999.0,'11111222,11111222,99999999' 
TABS,ioos:station:wmo:42046:1,2002-05-04T16:00:00Z,27.8903,-94.0367,2.0,23.48329176,14.80629596,-99999.0,'11111222,11111222,99999999' 
TABS,ioos:station:wmo:42046:1,2002-05-04T16:30:00Z,27.8903,-94.0367,2.0,27.19374566,18.75279446,-99999.0,'11111222,11111222,99999999' 
TABS,ioos:station:wmo:42046:1,2002-05-04T17:00:00Z,27.8903,-94.0367,2.0,27.41968769,18.89240324,-99999.0,'11111222,11111222,99999999' 
TABS,ioos:station:wmo:42046:1,2002-05-04T17:30:00Z,27.8903,-94.0367,2.0,31.59359273,21.37858976,-99999.0,'11111222,11111222,99999999' 
TABS,ioos:station:wmo:42046:1,2002-05-04T18:00:00Z,27.8903,-94.0367,2.0,38.45112853,24.4273003,-99999.0,'11111222,11111222,99999999' 
TABS,ioos:station:wmo:42046:1,2002-05-04T18:30:00Z,27.8903,-94.0367,2.0,28.58138659,25.04157543,-99999.0,'11111222,11111222,99999999' 
TABS,ioos:station:wmo:42046:1,2002-05-04T19:00:00Z,27.8903,-94.0367,2.0,32.36177505,27.27639272,-99999.0,'11111222,11111222,99999999' 